Location: Blanot
(47.1713°N, 4.2340°E)
Time: 04:33:34
(UTC+00:00)

Cosmos 2173 Rocket - Pass Details

Date: 14 July 2020
Orbit: 944 x 1001 km, 83.0° (Epoch: 06 August)

Event Time Altitude Azimuth Distance (km) Brightness Sun altitude
Exits shadow 01:43:02 25° 214° (SSW) 1,894 4.9 -16.6°
Maximum altitude 01:46:44 57° 283° (WNW) 1,163 4.3 -16.3°
Drops below altitude 10° 01:52:57 10° 2° (N) 2,750 7.3 -15.8°
Sets 01:55:31 0° 6° (N) 3,694 8.3 -15.5°
